Home > Weather > Selkirk > Past weeks

Flag for Canada Past Weather in Selkirk, Manitoba, Canada — Yesterday and Last 2 Weeks

Now
68 °F

Mild.


Feels Like: 68 °F
Forecast: 60 / 83 °F
Wind: 6 mph from West

Location: Winnipeg The Forks Man

Current Time: Jul 25, 2016 at 9:06:22 AM

Latest Report: Jul 25, 2016 at 8:00 AM


Visibility: N/A

Pressure: 29.95 "Hg

Humidity: 69%

Dew Point: 57 °F

Location of SelkirkLocation

Past Weather in Selkirk — Graph

°F

Selkirk Temperature Yesterday

Maximum temperature yesterday: 77 °F (at 4:00 PM)
Minimum temperature yesterday: 63 °F (at 6:00 AM)
Average temperature yesterday: 70 °F

High & Low Weather Summary for the Past Weeks

 TemperatureHumidityPressure
High89 °F (Jul 20, 6:00 PM)98% (Jul 13, 5:00 AM)30.17 "Hg (Jul 13, 5:00 AM)
Low53 °F (Jul 15, 5:00 AM)35% (Jul 15, 4:00 PM)29.26 "Hg (Jul 12, 11:00 PM)
Average70 °F70%29.81 "Hg
* Reported Jul 10 8:00 AM — Jul 25 8:00 AM, Selkirk, Weather by CustomWeather, © 2016

Note: Actual official high and low records may vary slightly from our data, if they occured in-between our weather recording intervals... More about our weather records

Advertising

Selkirk Weather History for the Previous 24 Hours

Scroll right to see more
 ConditionsComfort  
Time TempWeatherWind HumidityBarometerVisibility
8:00 AM
Mon, Jul 25
68 °FMild.6 mph69%29.95 "HgN/A
7:00 AM66 °FMild.3 mph72%29.94 "HgN/A
6:00 AM65 °FMild.3 mph81%29.94 "HgN/A
5:00 AM65 °FMild.3 mph83%29.93 "HgN/A
4:00 AM64 °FMild.5 mph91%29.92 "HgN/A
3:00 AM67 °FMild.2 mph82%29.91 "HgN/A
2:00 AM68 °FMild.2 mph75%29.91 "HgN/A
1:00 AM69 °FMild.2 mph73%29.90 "HgN/A
12:00 AM69 °FMild.3 mph74%29.91 "HgN/A
11:00 PM
Sun, Jul 24
71 °FMild.2 mph67%29.90 "HgN/A
10:00 PM72 °FMild.2 mph65%29.89 "HgN/A
9:00 PM73 °FMild.3 mph56%29.87 "HgN/A
8:00 PM75 °FMild.5 mph53%29.86 "HgN/A
7:00 PM76 °FMild.6 mph51%29.85 "HgN/A
6:00 PM76 °FMild.9 mph55%29.85 "HgN/A
5:00 PM77 °FWarm.7 mph51%29.84 "HgN/A
4:00 PM77 °FWarm.6 mph54%29.83 "HgN/A
3:00 PM74 °FMild.7 mph55%29.81 "HgN/A
2:00 PM75 °FMild.6 mph57%29.81 "HgN/A
1:00 PM73 °FMild.7 mph58%29.80 "HgN/A
12:00 PM72 °FMild.6 mph63%29.78 "HgN/A
11:00 AM71 °FMild.7 mph67%29.77 "HgN/A
10:00 AM70 °FMild.6 mph72%29.75 "HgN/A
9:00 AM67 °FMild.6 mph76%29.74 "HgN/A
Weather by CustomWeather, © 2016

See weather overviewHow to use our weather pages